Weather observations for the past three days for
Nevada County Air Park
Imperial (Metric)
Date Time (pdt) Wind (mph) Vis. (mi.) Weather Sky Cond. Temperature (ºF) Relative Humidity Wind Chill (°F) Heat Index (°F) Pressure Precipitation (in)
Air Dwpt 6 hour altimeter (in) sea level (mb) 1 hr 3 hr 6 hr
Max. Min.
17 22:35 Calm 10.00 Fair CLR 75.2 35.6 24% 76 30.09 0.0
17 22:15 Calm 10.00 Fair CLR 73.4 35.6 25% 30.09 0.0
17 21:55 NE 3 10.00 Fair CLR 73.4 37.4 27% 30.09 0.0
17 21:35 NE 3 10.00 Fair CLR 73.4 37.4 27% 30.09 0.0
17 21:15 Calm 10.00 Fair CLR 73.4 39.2 29% 30.09 0.0
17 20:55 Calm 10.00 Fair CLR 75.2 41 29% 77 30.09 0.0
17 20:35 Calm 10.00 Fair CLR 77 41 28% 78 30.09 0.0
17 20:15 Calm 10.00 Fair CLR 80.6 37.4 21% 79 30.09 0.0
17 19:55 Calm 10.00 Fair CLR 82.4 33.8 17% 80 30.09 0.0
17 19:35 W 3 10.00 Fair CLR 82.4 35.6 19% 80 30.09 0.0
17 19:15 Calm 10.00 Fair CLR 84.2 32 15% 81 30.09 0.0
17 18:55 Calm 10.00 Fair CLR 84.2 30.2 14% 81 30.09 0.0
17 18:35 Calm 10.00 Fair CLR 84.2 28.4 13% 81 30.09 0.0
17 18:15 Vrbl 3 10.00 Fair CLR 86 30.2 13% 83 30.09 0.0
17 17:55 Calm 10.00 Fair CLR 86 30.2 13% 83 30.09 0.0
17 17:35 Vrbl 6 10.00 Fair CLR 86 28.4 12% 83 30.09 0.0
17 17:15 Vrbl 5 10.00 Fair CLR 86 32 14% 83 30.1 0.0
17 16:55 Vrbl 5 10.00 Fair CLR 86 32 14% 83 30.1 0.0
17 16:35 W 7 10.00 Fair CLR 86 30.2 13% 83 30.1 0.0
17 16:15 W 5 10.00 Fair CLR 87.8 30.2 13% 84 30.11 0.0
17 15:55 SW 8 10.00 Fair CLR 86 28.4 12% 83 30.11 0.0
17 15:35 Vrbl 5 10.00 Fair CLR 87.8 30.2 13% 84 30.11 0.0
17 15:15 Calm 10.00 Fair CLR 87.8 32 13% 84 30.11 0.0
17 14:55 Vrbl 5 G 12 10.00 Fair CLR 86 32 14% 83 30.11 0.0
17 14:35 Vrbl 7 10.00 Fair CLR 87.8 30.2 13% 84 30.12 0.0
17 14:15 Calm 10.00 Fair CLR 86 32 14% 83 30.12 0.0
17 13:55 Vrbl 7 G 13 10.00 Fair CLR 86 33.8 15% 83 30.12 0.0
17 13:35 Vrbl 5 10.00 Fair CLR 87.8 37.4 17% 84 30.13 0.0
17 13:15 Vrbl 6 9.00 Fair CLR 86 35.6 17% 83 30.13 0.0
17 12:55 Vrbl 7 10.00 Fair CLR 86 35.6 17% 83 30.13 0.0
17 12:35 Calm 10.00 Fair CLR 86 37.4 18% 83 30.13 0.0
17 12:15 Vrbl 7 G 14 10.00 Fair CLR 84.2 39.2 20% 81 30.12 0.0
17 11:55 Vrbl 5 10.00 Fair CLR 84.2 41 22% 82 30.12 0.0
17 11:35 Vrbl 5 10.00 Fair CLR 84.2 39.2 20% 81 30.12 0.0
17 11:15 Vrbl 6 G 12 10.00 Fair CLR 82.4 39.2 21% 80 30.11 0.0
17 10:55 Vrbl 5 10.00 Fair CLR 82.4 41 23% 80 30.11 0.0
17 10:35 Vrbl 3 10.00 Fair CLR 82.4 41 23% 80 30.11 0.0
17 10:15 Vrbl 5 10.00 Fair CLR 78.8 39.2 24% 78 30.11 0.0
17 09:55 Calm 10.00 Fair CLR 78.8 41 26% 78 30.11 0.0
17 09:35 SE 6 10.00 Fair CLR 77 37.4 24% 77 30.1 0.0
17 09:15 Vrbl 5 10.00 Fair CLR 77 39.2 26% 77 30.1 0.0
17 08:55 SE 5 10.00 Fair CLR 75.2 39.2 27% 77 30.1 0.0
17 08:35 SE 5 10.00 Fair CLR 75.2 37.4 25% 77 30.1 0.0
17 08:15 SE 3 10.00 Fair CLR 75.2 37.4 25% 77 30.09 0.0
17 07:55 SE 5 10.00 Fair CLR 73.4 35.6 25% 30.09 0.0
17 07:35 SE 5 10.00 Fair CLR 73.4 37.4 27% 30.09 0.0
17 07:15 SE 3 10.00 Fair CLR 73.4 33.8 23% 30.08 0.0
17 06:55 Calm 10.00 Fair CLR 71.6 33.8 25% 30.08 0.0
17 06:35 Calm 10.00 Fair CLR 71.6 33.8 25% 30.07 0.0
17 06:15 Calm 10.00 Fair CLR 71.6 32 23% 30.06 0.0
17 05:55 SE 5 10.00 Fair CLR 71.6 33.8 25% 30.06 0.0
17 05:35 SE 3 10.00 Fair CLR 71.6 33.8 25% 30.05 0.0
17 05:15 SE 5 10.00 Fair CLR 71.6 33.8 25% 30.05 0.0
17 04:55 Vrbl 6 10.00 Fair CLR 71.6 33.8 25% 30.05 0.0
17 04:35 SE 5 10.00 Fair CLR 71.6 33.8 25% 30.05 0.0
17 04:15 SE 7 10.00 Fair CLR 73.4 33.8 23% 30.05 0.0
17 03:55 E 7 10.00 Fair CLR 73.4 33.8 23% 30.05 0.0
17 03:35 SE 6 10.00 Fair CLR 73.4 33.8 23% 30.05 0.0
17 03:15 E 6 10.00 Fair CLR 73.4 37.4 27% 30.05 0.0
17 02:55 E 7 10.00 Fair CLR 71.6 41 33% 30.05 0.0
17 02:35 SE 5 10.00 Fair CLR 68 44.6 43% 30.05 0.0
17 02:15 E 6 10.00 Fair CLR 68 44.6 43% 30.06 0.0
17 01:55 E 3 10.00 Fair CLR 68 46.4 46% 30.06 0.0
17 01:35 Calm 10.00 Fair CLR 68 46.4 46% 30.07 0.0
17 01:15 Vrbl 3 10.00 Fair CLR 68 44.6 43% 30.07 0.0
17 00:50 E 5 10.00 Fair CLR 69.8 46.4 43% 30.07 0.0
17 00:35 SE 3 10.00 Fair CLR 69.8 46.4 43% 30.07 0.0
17 00:15 E 5 10.00 A Few Clouds FEW003 69.8 46.4 43% 30.07 0.0
16 23:55 Calm 10.00 Partly Cloudy SCT003 68 48.2 49% 30.07 0.0
16 23:35 Calm 10.00 A Few Clouds FEW003 69.8 48.2 46% 30.07 0.0
16 23:15 Calm 10.00 Fair CLR 71.6 46.4 41% 30.06 0.0
16 22:55 Vrbl 6 10.00 Fair CLR 71.6 46.4 41% 30.06 0.0
16 22:35 SE 5 10.00 Fair CLR 71.6 46.4 41% 30.07 0.0
16 22:15 SE 3 10.00 Fair CLR 71.6 46.4 41% 30.07 0.0
16 21:55 SE 3 10.00 Fair CLR 71.6 46.4 41% 30.07 0.0
16 21:35 Calm 10.00 Fair CLR 71.6 48.2 44% 30.07 0.0
16 21:15 Calm 10.00 Fair CLR 71.6 48.2 44% 30.06 0.0
16 20:55 Calm 10.00 Fair CLR 73.4 48.2 41% 30.06 0.0
16 20:35 Calm 10.00 Fair CLR 73.4 48.2 41% 30.06 0.0
16 20:15 Calm 10.00 Fair CLR 75.2 48.2 39% 77 30.06 0.0
16 19:55 Calm 10.00 Fair CLR 77 46.4 34% 78 30.06 0.0
16 19:35 Calm 10.00 Fair CLR 78.8 48.2 34% 79 30.06 0.0
16 19:15 Calm 10.00 Fair CLR 80.6 48.2 32% 80 30.06 0.0
16 18:55 Calm 10.00 Fair CLR 82.4 46.4 28% 81 30.06 0.0
16 18:35 Calm 10.00 Fair CLR 82.4 44.6 26% 81 30.05 0.0
16 18:15 W 5 10.00 Fair CLR 84.2 44.6 25% 82 30.05 0.0
16 17:55 Calm 10.00 Fair CLR 84.2 44.6 25% 82 30.05 0.0
16 17:35 Calm 10.00 Fair CLR 86 42.8 22% 83 30.05 0.0
16 17:15 Vrbl 3 10.00 Fair CLR 86 44.6 24% 83 30.06 0.0
16 16:55 Calm 10.00 Fair CLR 86 44.6 24% 83 30.06 0.0
16 16:35 Calm 10.00 Fair CLR 86 42.8 22% 83 30.07 0.0
16 16:15 Vrbl 5 10.00 Fair CLR 86 42.8 22% 83 30.07 0.0
16 15:55 Calm 10.00 Fair CLR 87.8 44.6 22% 85 30.07 0.0
16 15:35 Vrbl 5 10.00 Fair CLR 87.8 46.4 24% 85 30.07 0.0
16 15:15 W 6 10.00 Fair CLR 87.8 48.2 25% 85 30.08 0.0
16 14:55 Vrbl 5 9.00 Fair CLR 89.6 48.2 24% 86 30.08 0.0
16 14:35 Vrbl 7 10.00 Fair CLR 89.6 48.2 24% 86 30.08 0.0
16 14:15 Vrbl 5 10.00 Fair CLR 87.8 46.4 24% 85 30.08 0.0
16 13:55 Vrbl 6 G 13 10.00 Fair CLR 89.6 44.6 21% 86 30.09 0.0
16 13:35 Vrbl 5 10.00 Fair CLR 89.6 48.2 24% 86 30.09 0.0
16 13:15 Vrbl 7 10.00 Fair CLR 89.6 48.2 24% 86 30.09 0.0
16 12:55 SW 8 10.00 Fair CLR 87.8 48.2 25% 85 30.09 0.0
16 12:35 Vrbl 5 10.00 Fair CLR 86 50 29% 84 30.09 0.0
16 12:15 Vrbl 5 10.00 Fair CLR 87.8 51.8 29% 85 30.09 0.0
16 11:55 Vrbl 3 9.00 Fair CLR 84.2 53.6 35% 83 30.09 0.0
16 11:35 Vrbl 7 10.00 Fair CLR 84.2 51.8 33% 82 30.09 0.0
16 11:15 Vrbl 5 10.00 Fair CLR 84.2 53.6 35% 83 30.09 0.0
16 10:55 Calm 10.00 Fair CLR 84.2 55.4 37% 83 30.09 0.0
16 10:35 Calm 10.00 Fair CLR 82.4 53.6 37% 81 30.09 0.0
16 10:15 Vrbl 6 10.00 Fair CLR 80.6 53.6 39% 80 30.09 0.0
16 09:55 S 3 10.00 Fair CLR 80.6 53.6 39% 80 30.08 0.0
16 09:35 Vrbl 5 10.00 Fair CLR 80.6 53.6 39% 80 30.08 0.0
16 09:15 Calm 10.00 Fair CLR 78.8 55.4 45% 79 30.08 0.0
16 08:55 Calm 10.00 Fair CLR 77 55.4 47% 79 30.08 0.0
16 08:35 S 3 10.00 Fair CLR 75.2 53.6 47% 78 30.08 0.0
16 08:15 SE 3 10.00 Fair CLR 75.2 55.4 50% 78 30.08 0.0
16 07:55 Calm 10.00 Fair CLR 75.2 55.4 50% 78 30.07 0.0
16 07:35 Calm 10.00 Fair CLR 75.2 53.6 47% 78 30.07 0.0
16 07:15 Calm 10.00 Fair CLR 75.2 53.6 47% 78 30.07 0.0
16 06:55 Calm 10.00 Fair CLR 73.4 53.6 50% 30.06 0.0
16 06:35 Calm 10.00 Fair CLR 73.4 53.6 50% 30.06 0.0
16 06:15 Calm 10.00 Fair CLR 73.4 53.6 50% 30.06 0.0
16 05:55 Calm 10.00 Fair CLR 73.4 51.8 47% 30.05 0.0
16 05:35 Calm 10.00 A Few Clouds FEW049 73.4 51.8 47% 30.05 0.0
16 05:15 Calm 10.00 Mostly Cloudy SCT049 BKN055 75.2 51.8 44% 78 30.04 0.0
16 04:55 Calm 10.00 Partly Cloudy SCT050 SCT055 75.2 51.8 44% 78 30.04 0.0
16 04:35 Calm 10.00 A Few Clouds FEW050 FEW055 75.2 51.8 44% 78 30.04 0.0
16 04:15 Calm 10.00 A Few Clouds FEW050 75.2 51.8 44% 78 30.04 0.0
16 03:55 Calm 10.00 A Few Clouds FEW050 FEW055 75.2 51.8 44% 78 30.04 0.0
16 03:35 Calm 10.00 A Few Clouds FEW050 FEW120 75.2 51.8 44% 78 30.04 0.0
16 03:15 Calm 10.00 A Few Clouds FEW050 FEW120 75.2 51.8 44% 78 30.05 0.0
16 02:55 Calm 10.00 Partly Cloudy SCT049 SCT120 75.2 51.8 44% 78 30.05 0.0
16 02:35 Calm 10.00 A Few Clouds FEW047 FEW120 77 51.8 42% 78 30.05 0.0
16 02:15 Calm 10.00 Fair CLR 77 51.8 42% 78 30.04 0.0
16 01:55 Calm 10.00 A Few Clouds FEW044 FEW050 78.8 51.8 39% 79 30.04 0.0
16 01:35 Calm 10.00 Partly Cloudy SCT047 78.8 51.8 39% 79 30.05 0.0
16 01:15 Calm 10.00 A Few Clouds FEW050 78.8 51.8 39% 79 30.05 0.0
16 00:55 Calm 10.00 A Few Clouds FEW050 78.8 51.8 39% 79 30.06 0.0
16 00:35 Calm 10.00 Partly Cloudy FEW047 SCT055 78.8 51.8 39% 79 30.06 0.0
16 00:15 Calm 10.00 Partly Cloudy FEW048 SCT055 78.8 51.8 39% 79 30.06 0.0
15 23:55 Calm 10.00 A Few Clouds FEW045 78.8 51.8 39% 79 30.06 0.0
15 23:35 Calm 10.00 A Few Clouds FEW045 78.8 51.8 39% 79 30.06 0.0
15 23:15 Calm 10.00 Fair CLR 78.8 51.8 39% 79 30.06 0.0
15 22:55 NE 3 10.00 Fair CLR 80.6 51.8 37% 80 30.07 0.0
15 22:35 NE 6 10.00 Fair CLR 80.6 51.8 37% 80 30.07 0.0
15 22:15 NE 5 10.00 Fair CLR 78.8 51.8 39% 79 30.07 0.0
15 21:55 NE 6 10.00 Fair CLR 78.8 53.6 42% 79 30.07 0.0
15 21:35 Calm 10.00 Fair CLR 78.8 53.6 42% 79 30.07 0.0
15 21:15 N 5 10.00 Fair CLR 78.8 53.6 42% 79 30.07 0.0
15 20:55 NW 5 10.00 Fair CLR 80.6 53.6 39% 80 30.07 0.0
15 20:35 Calm 10.00 Fair CLR 80.6 55.4 42% 81 30.07 0.0
15 20:15 NW 3 10.00 Fair CLR 82.4 51.8 35% 81 30.07 0.0
15 19:55 Calm 10.00 Fair CLR 84.2 51.8 33% 82 30.07 0.0
15 19:35 W 5 10.00 Fair CLR 86 51.8 31% 84 30.06 0.0
15 19:15 Calm 10.00 Fair CLR 86 50 29% 84 30.07 0.0
15 18:55 Calm 10.00 Fair CLR 86 50 29% 84 30.07 0.0
15 18:35 Calm 10.00 Fair CLR 87.8 50 27% 85 30.08 0.0
15 18:15 Calm 10.00 Fair CLR 87.8 48.2 25% 85 30.08 0.0
15 17:55 Calm 10.00 Fair CLR 87.8 50 27% 85 30.08 0.0
15 17:35 Calm 10.00 Fair CLR 89.6 48.2 24% 86 30.08 0.0
15 17:15 SW 3 10.00 Fair CLR 89.6 48.2 24% 86 30.09 0.0
15 16:55 Vrbl 3 10.00 Fair CLR 87.8 50 27% 85 30.09 0.0
15 16:35 Vrbl 6 10.00 Fair CLR 89.6 50 26% 87 30.09 0.0
15 16:15 Vrbl 5 10.00 Fair CLR 89.6 50 26% 87 30.09 0.0
15 15:55 Calm 10.00 Fair CLR 89.6 48.2 24% 86 30.09 0.0
15 15:35 Calm 10.00 Fair CLR 89.6 48.2 24% 86 30.1 0.0
15 15:15 Vrbl 3 10.00 Fair CLR 89.6 51.8 27% 87 30.1 0.0
15 14:55 Vrbl 6 10.00 Fair CLR 87.8 50 27% 85 30.1 0.0
15 14:35 Vrbl 6 10.00 Fair CLR 89.6 51.8 27% 87 30.11 0.0
15 14:15 Vrbl 5 10.00 Fair CLR 89.6 51.8 27% 87 30.11 0.0
15 13:55 Vrbl 6 10.00 Fair CLR 89.6 50 26% 87 30.12 0.0
15 13:35 Vrbl 5 10.00 Fair CLR 89.6 50 26% 87 30.12 0.0
15 13:15 Vrbl 5 10.00 Fair CLR 89.6 50 26% 87 30.13 0.0
15 12:55 Calm 10.00 Fair CLR 89.6 50 26% 87 30.13 0.0
15 12:35 Vrbl 6 10.00 Fair CLR 89.6 50 26% 87 30.13 0.0
15 12:15 Vrbl 3 10.00 Fair CLR 87.8 50 27% 85 30.13 0.0
15 11:55 S 5 10.00 Fair CLR 89.6 48.2 24% 86 30.13 0.0
15 11:35 Calm 10.00 Fair CLR 89.6 48.2 24% 86 30.13 0.0
15 11:15 Vrbl 6 10.00 Fair CLR 87.8 48.2 25% 85 30.14 0.0
15 10:55 Vrbl 7 10.00 Fair CLR 86 48.2 27% 83 30.14 0.0
15 10:35 Vrbl 5 10.00 Fair CLR 84.2 48.2 29% 82 30.14 0.0
15 10:15 SE 7 10.00 Fair CLR 84.2 46.4 27% 82 30.14 0.0
15 09:55 SE 6 10.00 Fair CLR 82.4 48.2 30% 81 30.14 0.0
15 09:35 SE 5 10.00 Fair CLR 80.6 48.2 32% 80 30.14 0.0
15 09:15 SE 5 10.00 Fair CLR 80.6 48.2 32% 80 30.14 0.0
15 08:55 SE 6 10.00 Fair CLR 80.6 46.4 30% 80 30.14 0.0
15 08:35 SE 5 10.00 Fair CLR 78.8 48.2 34% 79 30.14 0.0
15 08:15 SE 5 10.00 Fair CLR 78.8 48.2 34% 79 30.13 0.0
15 07:55 SE 5 10.00 Fair CLR 77 51.8 42% 78 30.13 0.0
15 07:35 Calm 10.00 Fair CLR 75.2 50 41% 78 30.12 0.0
15 07:15 Calm 10.00 Fair CLR 75.2 50 41% 78 30.12 0.0
15 06:55 Calm 10.00 Fair CLR 73.4 50 44% 30.11 0.0
15 06:35 Calm 10.00 Fair CLR 73.4 48.2 41% 30.1 0.0
15 06:15 Calm 10.00 Fair CLR 73.4 48.2 41% 30.1 0.0
15 05:55 Calm 10.00 Fair CLR 75.2 46.4 36% 77 30.1 0.0
15 05:35 Calm 10.00 Fair CLR 77 46.4 34% 78 30.09 0.0
15 05:15 Calm 10.00 Fair CLR 77 46.4 34% 78 30.09 0.0
15 04:55 E 3 10.00 Fair CLR 75.2 46.4 36% 77 30.08 0.0
15 04:35 E 5 10.00 Fair CLR 75.2 46.4 36% 77 30.08 0.0
15 04:15 E 3 10.00 Fair CLR 77 46.4 34% 78 30.08 0.0
15 03:55 Calm 10.00 Fair CLR 75.2 46.4 36% 77 30.08 0.0
15 03:35 Calm 10.00 Fair CLR 77 46.4 34% 78 30.08 0.0
15 03:15 Calm 10.00 Fair CLR 77 48.2 36% 78 30.08 0.0
15 02:55 Calm 10.00 Fair CLR 78.8 46.4 32% 79 30.08 0.0
15 02:30 E 6 10.00 Fair CLR 78.8 46.4 32% 79 30.08 0.0
15 02:15 E 5 10.00 Fair CLR 78.8 46.4 32% 79 30.09 0.0
15 01:55 E 3 10.00 Fair CLR 77 46.4 34% 78 30.09 0.0
15 01:35 E 3 10.00 Fair CLR 78.8 48.2 34% 79 30.09 0.0
15 01:15 NE 5 10.00 Fair CLR 77 50 39% 78 30.1 0.0
15 00:55 Calm 10.00 Fair CLR 77 48.2 36% 78 30.1 0.0
15 00:35 Calm 10.00 Fair CLR 77 50 39% 78 30.1 0.0
15 00:15 NE 5 10.00 Fair CLR 77 48.2 36% 78 30.11 0.0
14 23:55 NE 5 10.00 Fair CLR 77 46.4 34% 78 30.11 0.0
14 23:35 NE 3 10.00 Fair CLR 77 46.4 34% 78 30.11 0.0
14 23:15 NE 3 10.00 Fair CLR 77 48.2 36% 78 30.11 0.0
14 22:55 NE 5 10.00 Fair CLR 77 48.2 36% 78 30.11 0.0
Date Time (pdt) Wind (mph) Vis. (mi.) Weather Sky Cond. Air Dwpt Max. Min. Relative Humidity Wind Chill (°F) Heat Index (°F) altimeter (in) sea level (mb) 1 hr 3 hr 6 hr
6 hour
Temperature (ºF) Pressure Precipitation (in)